Location: Castrojimeno
(41.3966°N, 3.8473°W)
Time: 07:25:47
(UTC+00:00)

Cosmos 2026 Rocket - Pass Details

Date: 15 May 2026
Orbit: 939 x 999 km, 82.9° (Epoch: 6 June)

Event Time Altitude Azimuth Distance (km) Brightness Sun altitude
Rises 22:31:33 0° 352° (N) 3,729 8.2 -25.3°
Reaches altitude 10° 22:34:06 10° 353° (N) 2,776 7.3 -25.5°
Maximum altitude 22:40:30 87° 82° (E) 1,004 3.9 -26.0°
Enters shadow 22:41:40 63° 168° (SSE) 1,108 3.9 -26.1°
